Location: Zagreb
(45.8000°N, 16.0000°E)
Time: 20:51:37
(UTC+01:00)

DX 1 - Pass Details

Date: 31 October 2020
Orbit: 619 x 630 km, 98.5° (Epoch: 01 December)

Event Time Altitude Azimuth Distance (km) Brightness Sun altitude
Rises 17:59:44 0° 20° (NNE) 2,910 ? -13.7°
Reaches altitude 10° 18:02:01 10° 27° (NNE) 2,000 ? -14.1°
Maximum altitude 18:06:10 44° 99° (E) 869 ? -14.9°
Drops below altitude 10° 18:10:19 10° 172° (S) 1,990 ? -15.6°
Sets 18:12:35 0° 179° (S) 2,894 ? -16.0°
